Theta_e
351 358 367 367 366 365 363 364 363 363 361 361 362 364 364 365 364 365 365 362 361 361 359 359 358 359 360 361 362 362 362 362 363 363 362 362 361 360 362 359 353 348 355
354 359 367 368 368 366 366 366 364 364 362 362 362 363 363 364 363 363 362 361 361 361 358 358 358 359 360 361 361 360 361 361 364 362 362 360 359 362 360 362 357 354 360
354 358 363 367 368 367 366 366 365 363 362 363 363 362 362 362 362 362 362 362 360 361 360 360 360 360 361 361 361 359 359 360 363 360 357 349 352 359 362 361 359 356 358
355 356 360 366 367 368 367 367 366 363 362 363 362 362 362 362 361 361 362 362 361 360 360 361 362 362 362 360 359 360 360 360 360 362 350 350 351 358 357 361 360 358 357
352 354 359 368 368 365 365 368 367 365 363 362 361 362 362 362 362 362 362 361 361 361 360 360 360 362 361 361 360 359 357 359 357 358 354 347 350 358 360 358 357 359 357
351 354 365 369 366 364 364 366 367 364 365 364 363 362 362 361 361 362 362 361 361 361 361 361 360 360 358 358 358 357 358 358 358 354 347 356 353 359 358 360 360 358 358
350 357 362 368 368 366 365 365 366 365 364 362 363 364 362 363 362 361 361 360 359 359 360 360 358 359 360 358 358 358 357 354 351 346 349 353 356 361 356 359 358 354 354
353 356 359 366 367 365 364 364 363 362 362 362 362 362 362 362 361 361 362 361 357 358 360 361 358 360 360 360 358 355 354 353 352 350 347 352 358 360 356 354 356 356 354
355 355 357 358 360 364 364 363 362 362 363 363 363 364 362 362 362 361 361 361 358 357 361 360 360 360 360 357 355 357 356 358 353 351 352 354 361 362 358 361 359 357 357
353 354 356 356 355 355 358 367 365 365 362 363 363 363 362 362 362 362 362 362 359 357 360 360 361 359 361 360 358 358 358 359 351 350 350 355 362 363 360 357 357 358 354
351 353 355 355 355 354 355 360 364 364 363 362 361 362 361 355 355 358 359 361 360 360 359 361 359 361 361 359 359 359 359 352 349 349 344 360 362 363 360 359 359 355 354
345 349 352 353 353 354 357 355 355 355 354 354 353 352 354 353 352 356 359 362 361 357 360 361 361 360 358 351 351 359 352 352 351 348 344 360 359 360 360 361 361 358 355
346 349 351 352 352 352 352 355 355 353 354 353 354 354 354 353 352 355 353 355 353 356 353 357 358 354 351 349 346 347 351 349 347 346 349 359 360 364 361 361 359 356 354
347 348 351 351 352 351 352 352 351 352 353 353 354 355 353 349 349 351 352 352 349 346 347 352 352 352 350 348 347 345 346 345 348 347 353 362 362 364 363 362 360 358 356
347 349 351 352 352 352 353 351 350 350 353 350 353 353 354 350 347 350 349 352 351 348 345 349 347 348 347 347 346 347 345 345 350 350 351 363 363 363 364 362 362 359 358
348 350 353 353 354 354 352 352 351 351 352 350 352 352 353 351 350 346 350 349 351 349 346 347 345 346 345 345 346 344 343 344 348 349 351 356 362 362 363 363 364 363 360
348 351 353 353 353 353 350 354 352 352 353 351 353 353 355 352 351 347 349 348 349 350 350 351 347 350 347 348 343 346 343 343 345 347 351 354 357 362 363 362 364 364 365
350 349 353 357 354 353 351 351 352 353 352 353 352 353 352 354 353 350 350 348 350 350 351 348 348 346 345 346 341 344 342 343 342 343 347 352 353 356 360 363 363 363 363
350 350 351 355 355 353 353 353 351 353 350 349 351 352 352 352 352 352 352 350 349 350 349 349 347 346 344 345 346 347 344 342 343 345 343 344 350 353 352 359 362 361 364
350 351 351 352 354 353 353 353 351 350 351 349 349 351 354 351 351 349 349 350 352 348 348 348 347 348 344 342 346 345 344 348 348 347 345 346 345 352 351 353 356 357 363
350 350 350 349 352 353 351 351 348 346 347 347 351 350 355 353 353 350 349 349 349 348 347 349 345 345 345 345 340 339 341 345 348 347 348 347 346 348 351 351 354 353 355
346 350 350 349 351 352 352 351 348 346 346 348 349 353 354 353 353 352 348 347 347 345 346 347 347 344 345 345 339 336 329 334 341 346 346 347 345 348 348 349 354 352 353
345 347 350 352 352 353 353 350 347 348 345 346 347 348 351 351 351 351 352 349 349 348 347 346 348 345 341 343 345 337 329 327 332 339 344 345 345 345 346 346 352 355 353
345 350 350 351 354 353 352 349 346 346 344 345 344 346 350 349 351 352 352 350 350 349 346 347 347 345 343 338 342 346 341 337 330 328 338 342 344 345 348 349 348 352 357
347 349 351 352 353 354 353 350 347 343 345 344 346 346 349 351 352 352 350 348 346 350 349 347 345 346 345 340 338 338 339 338 338 334 330 333 339 343 346 346 348 351 352
349 349 351 352 352 352 351 350 348 345 343 342 343 346 348 350 352 352 352 349 348 349 347 347 346 346 343 344 343 341 338 336 334 334 333 333 332 338 342 346 345 348 353
Wind_Speed
14 15 18 16 16 16 15 14 14 15 13 12 14 16 16 17 17 16 16 14 14 12 12 11 10 10 10 11 13 13 14 15 15 17 18 20 17 14 14 19 18 13 16
18 15 18 17 17 17 16 15 15 13 14 13 12 14 15 15 16 14 15 12 12 12 11 10 9 8 9 10 10 11 12 13 13 17 18 17 17 12 13 19 18 13 16
19 15 15 17 18 18 17 16 15 14 14 14 12 13 14 14 14 13 13 13 11 10 11 11 9 9 11 10 9 10 10 11 11 15 17 7 9 16 18 18 18 16 14
19 14 13 17 18 17 16 16 16 16 15 14 13 12 12 13 12 12 12 11 12 12 10 12 11 12 11 9 8 9 9 10 11 15 9 8 10 14 16 16 16 16 15
18 14 13 17 18 17 16 15 16 15 13 13 12 12 11 11 12 12 12 11 11 11 12 11 11 12 12 9 8 7 6 8 5 6 3 6 7 11 14 15 15 14 14
19 16 17 18 18 17 15 15 16 15 13 13 13 12 11 12 11 12 12 11 11 11 11 11 10 10 10 8 6 5 4 5 4 4 9 10 9 13 11 14 15 14 13
19 17 15 19 18 17 16 15 15 15 14 13 11 12 12 11 11 11 11 11 10 9 10 12 11 11 10 8 5 3 1 2 1 4 9 9 9 12 13 13 13 12 12
21 19 16 19 18 18 18 16 15 16 15 13 12 12 11 11 11 11 11 10 10 9 10 11 11 11 10 8 6 3 3 3 4 3 8 8 12 13 13 13 12 12 11
20 18 15 15 16 19 17 17 15 14 14 14 12 11 11 11 11 12 11 10 11 10 10 10 11 10 9 7 7 5 4 6 3 3 8 7 13 14 14 13 12 11 11
17 16 15 13 11 10 10 16 15 15 14 13 13 14 12 11 11 12 10 10 11 11 10 11 11 11 9 7 8 6 6 7 1 3 5 7 16 17 15 14 12 11 10
14 15 14 13 12 9 7 10 13 15 13 13 11 13 11 5 6 9 10 13 12 11 12 11 11 10 9 10 10 7 7 2 4 4 3 16 17 17 16 13 13 12 11
16 15 14 14 14 11 9 7 6 6 4 5 5 5 4 5 5 8 10 13 12 11 10 10 10 11 10 3 3 8 2 3 3 4 6 18 18 17 17 14 15 12 10
18 14 15 15 14 13 10 7 5 3 4 4 7 6 5 4 4 5 4 6 4 9 4 6 5 4 4 4 4 4 5 3 4 5 6 17 18 17 18 15 13 13 12
19 18 16 15 15 12 6 8 7 7 5 5 7 8 5 3 4 4 5 5 5 4 5 6 4 5 5 7 8 5 4 4 4 3 6 15 17 17 17 17 16 14 13
18 18 17 15 14 12 10 9 8 8 7 8 6 8 6 5 5 4 5 5 5 5 5 5 5 6 5 8 5 5 2 2 6 4 6 15 14 16 16 18 18 17 15
18 18 16 16 15 12 11 10 8 9 8 7 6 9 9 7 5 5 4 4 6 5 5 4 5 5 6 6 6 6 6 1 4 5 5 8 16 16 16 16 15 16 17
18 18 18 17 15 13 12 11 8 6 9 8 8 9 8 7 8 8 5 5 6 5 6 5 6 4 7 6 6 5 4 4 3 6 5 5 8 15 17 18 16 16 17
18 20 18 15 16 15 12 10 7 6 7 7 8 7 11 10 7 6 6 5 5 5 5 4 4 4 6 5 3 4 4 5 5 5 5 6 6 6 13 18 18 18 18
22 21 18 17 17 16 12 10 8 7 8 6 8 7 9 10 10 7 6 5 5 4 4 4 3 3 2 2 3 3 5 5 6 6 6 6 8 8 6 14 16 17 19
22 21 20 14 16 15 10 7 6 4 4 5 5 8 9 8 10 8 5 5 5 5 5 3 4 3 3 4 3 3 3 5 5 7 7 8 6 7 8 8 8 9 19
20 22 20 18 16 13 10 9 10 8 4 4 5 10 11 10 10 7 6 6 5 5 6 6 3 4 4 3 2 2 3 6 5 5 5 5 7 7 7 7 6 5 7
24 22 20 19 18 14 11 10 6 7 3 5 5 8 12 11 10 9 6 6 6 5 6 6 5 3 3 4 3 1 1 4 4 6 5 6 7 6 6 6 7 7 6
24 24 20 19 20 16 13 9 3 3 3 6 7 6 9 12 10 8 9 6 7 6 6 5 7 8 5 4 5 4 2 5 1 3 8 8 7 3 2 4 7 9 8
24 21 22 18 20 16 15 13 15 11 11 9 8 6 7 11 11 10 9 9 6 5 5 7 6 4 4 4 2 5 3 3 2 3 3 3 4 1 3 3 6 8 8
22 22 21 20 17 18 16 16 14 13 9 4 7 8 8 9 11 11 8 6 7 6 8 7 6 7 5 4 4 2 4 3 3 4 4 4 2 2 2 6 16 5 6
20 20 20 21 20 18 18 13 16 17 9 7 6 8 8 7 7 9 10 8 7 6 7 7 7 7 6 5 4 5 4 4 4 4 5 5 4 3 3 4 6 3 5
Wind_Direction
151 156 152 153 152 146 144 136 126 122 119 112 108 103 102 99 96 101 101 111 118 122 126 126 117 103 99 97 100 106 111 116 117 111 107 98 97 106 117 109 107 109 113
140 151 150 151 150 143 141 138 135 133 133 127 122 117 114 110 109 105 105 112 132 131 132 130 124 114 113 109 110 110 116 119 118 110 106 101 94 95 160 110 112 113 113
141 145 146 150 147 143 145 146 145 142 136 135 134 126 122 115 113 112 112 117 127 127 142 136 128 125 123 123 121 121 120 126 126 122 114 106 96 100 109 116 115 115 110
139 143 147 148 142 140 143 150 150 149 146 141 140 131 124 121 123 125 123 125 128 132 128 129 133 129 127 129 133 130 141 141 153 143 114 127 108 108 113 112 115 118 115
136 142 151 145 138 137 139 146 149 148 147 140 139 132 129 132 135 132 123 124 133 138 135 138 138 139 133 133 150 152 144 132 149 160 115 121 110 115 115 120 118 121 120
145 143 150 147 142 140 140 139 144 145 148 147 145 140 138 142 146 137 124 129 131 133 144 143 148 142 139 145 168 174 152 166 177 311 127 122 115 124 134 117 118 119 120
142 142 148 148 146 143 143 144 142 141 145 148 151 143 147 146 139 136 134 135 140 142 151 150 147 150 145 155 184 199 47 295 339 68 124 125 125 131 125 125 124 125 130
143 146 150 148 146 147 149 149 150 148 151 153 155 155 153 145 152 148 145 149 145 150 152 147 151 139 154 168 196 221 267 277 339 134 134 131 139 137 137 135 136 134 133
137 144 148 150 152 154 153 153 156 157 157 156 154 152 153 151 154 153 156 158 152 154 149 149 151 156 159 189 207 217 253 278 313 108 147 139 149 150 145 148 152 143 144
138 146 149 149 147 153 158 158 163 163 166 165 166 159 157 158 156 160 157 161 162 158 155 166 158 163 173 196 234 238 257 279 46 213 169 159 156 155 151 153 153 155 155
143 151 150 153 148 148 150 165 162 170 170 172 169 163 163 156 161 164 164 170 170 169 167 168 173 172 189 211 234 253 270 300 290 152 187 166 162 157 157 161 166 162 163
153 157 156 157 155 155 162 162 159 172 156 156 163 177 165 174 172 164 179 176 173 177 171 175 179 187 207 226 248 252 233 234 255 177 170 174 165 164 160 159 163 171 176
157 157 165 160 162 163 162 163 164 162 168 175 173 173 189 176 191 173 155 169 167 180 159 180 182 198 223 239 242 232 227 229 214 157 177 176 168 170 165 166 174 181 184
161 165 166 165 164 171 150 162 173 165 177 189 183 178 175 165 176 147 157 163 166 161 176 172 185 203 227 238 239 236 240 203 109 124 160 196 175 176 173 175 181 186 191
164 165 167 167 166 170 152 165 176 173 174 187 180 180 165 168 173 156 173 166 173 169 182 188 187 202 222 241 241 265 257 207 140 148 162 202 193 183 185 181 184 191 197
167 169 168 168 169 168 163 171 181 180 181 176 178 184 176 172 168 177 185 182 186 181 188 181 195 206 222 230 211 220 243 164 118 156 185 184 204 194 193 192 193 198 201
171 167 170 169 171 171 172 179 189 183 177 179 176 172 174 176 179 173 180 192 189 188 184 182 205 213 228 218 225 200 223 262 204 176 197 186 205 206 199 198 196 204 208
158 171 168 170 172 176 175 185 193 195 182 174 174 174 180 180 180 170 190 199 197 178 185 180 180 221 203 201 210 211 203 233 254 243 177 192 199 199 211 210 196 205 210
158 164 169 171 173 177 180 180 192 185 185 173 173 175 183 179 181 175 184 199 193 186 183 177 188 175 183 218 237 221 214 213 227 246 251 214 194 199 201 216 208 209 213
158 161 167 168 171 174 178 174 189 182 168 159 162 180 179 183 183 185 191 193 186 183 186 181 183 195 173 193 245 279 268 228 216 212 220 236 228 201 200 199 206 213 216
156 165 168 169 175 171 177 180 189 189 173 177 174 179 186 177 181 180 190 193 171 169 183 182 175 191 227 210 129 306 291 269 254 234 226 216 225 213 202 202 203 208 219
167 159 170 173 171 180 181 186 182 186 187 189 190 177 180 179 177 180 188 190 174 162 182 182 170 180 201 198 194 160 276 320 274 244 239 239 230 222 216 201 201 205 209
170 170 161 167 173 176 179 175 152 152 199 200 200 178 176 175 184 177 189 182 174 175 187 186 181 176 182 215 206 157 130 222 284 257 238 234 233 202 336 282 213 213 212
174 168 165 161 171 175 176 181 190 196 198 204 196 188 169 177 185 191 192 197 169 163 174 192 187 179 153 195 231 230 236 155 178 320 316 294 246 103 278 332 260 216 195
166 168 167 165 169 175 179 186 191 203 209 168 185 177 178 177 184 193 191 194 189 182 195 188 189 200 190 182 183 162 230 260 215 187 266 295 337 187 226 131 258 210 195
161 166 170 171 172 181 185 187 194 200 198 186 161 182 182 185 180 180 193 196 196 196 205 196 197 203 200 202 184 186 187 185 209 195 222 242 223 267 211 221 253 257 204